Regional Weather Roundup
Issued by NWS Jackson, KY

Home | Current Version | Previous Version | Text Only | Print | Product List | Glossary On
Versions: 1 2 3 4 5 6 7 8 9 10 11 12 13 14 15 16 17 18 19 20 21 22 23 24 25 26 27 28 29 30 31 32 33 34 35 36 37 38 39 40 41 42 43 44 45 46 47 48 49 50
000
ASUS43 KJKL 290110
RWRJKL

EAST KENTUCKY HOURLY WEATHER ROUNDUP
NATIONAL WEATHER SERVICE JACKSON KY
900 PM EDT SAT MAR 28 2015

NOTE: "FAIR" INDICATES FEW OR NO CLOUDS BELOW 12,000 FEET WITH
NO SIGNIFICANT WEATHER AND/OR OBSTRUCTIONS TO VISIBILITY.

* THESE REPORTS ARE NOT UNDER NWS QUALITY CONTROL AND MAY NOT
  REPORT WEATHER SUCH AS PRECIPITATION AND FOG.

KYZ079-080-083-085-087-088-110-112-115-119-120-290200
...EASTERN KENTUCKY...

CITY           SKY/WX    TMP DP  RH WIND       PRES   REMARKS
JACKSON        CLEAR     30  10  43 VRB3      30.27R
LONDON         CLEAR     34   9  35 NE3       30.27R
SOMERSET*      CLEAR     32  14  47 NE3       30.30R
MONTICELLO*    CLEAR     31  21  66 CALM      30.31R
MIDDLESBORO*   CLEAR     35  13  40 NW6       30.26R WCI  30
HAZARD APT*    CLEAR     32   9  37 CALM      30.27R
PIKEVILLE APT* CLEAR     30   9  40 N6        30.25R WCI  24
BIG SANDY*     CLEAR     32   8  36 N3        30.27R
MOREHEAD APT*  PTCLDY    30  10  43 CALM      30.32R
$$

KYZ035-036-041-042-044-050-067-078-099-290200
...CENTRAL KENTUCKY...

CITY           SKY/WX    TMP DP  RH WIND       PRES   REMARKS
MT STERLING*   CLEAR     32  18  55 E3        30.32R
FLEMING/MASON* CLEAR     28  14  54 NE7       30.32R WCI  21
DANVILLE*      CLEAR     30  19  64 N3        30.30R
RICHMOND*      CLEAR     34  12  40 CALM      30.28R
LEXINGTON      CLEAR     33  11  39 NE5       30.29R WCI  29
FRANKFORT      CLEAR     31  14  49 CALM      30.29R
$$

KYZ091>093-OHZ055-061-077-WVZ005-015-034-035-042-290200
...SOUTHERN OHIO/WEST VIRGINIA...

CITY           SKY/WX    TMP DP  RH WIND       PRES   REMARKS
COVINGTON      CLEAR     33  11  39 N6        30.30R WCI  28
COLUMBUS       CLEAR     27  12  53 N5        30.32R WCI  22
DAYTON         CLEAR     28  15  58 N5        30.32R WCI  23
WILMINGTON     CLEAR     26  15  63 NE5       30.30R WCI  20
HUNTINGTON     CLEAR     30   9  41 N6        30.30R WCI  24
CHARLESTON     CLEAR     30   8  39 CALM      30.28R
PINEVILLE*     CLEAR     31  11  43 MISG      30.27R
BECKLEY          N/A     24   3  40 NW9       30.18R WCI  14
BLUEFIELD      CLEAR     26   5  40 NW6       30.16R WCI  19
$$

VAZ002-007-008-TNZ017-027-036-066-071-290200
...SOUTHWEST VIRGINIA/EAST TENNESSEE...

CITY           SKY/WX    TMP DP  RH WIND       PRES   REMARKS
WISE*          CLEAR     30   7  37 NW6       30.19R WCI  24
JONESVILLE*    CLEAR     34   9  35 N5        30.26R WCI  30
ABINGDON*      CLEAR     33   5  30 N3        30.19R
BRISTOL        CLEAR     33   9  36 N6        30.22R WCI  28
KNOXVILLE      CLEAR     40  10  29 N8        30.24R WCI  34
OAK RIDGE      CLEAR     40  10  29 VRB3      30.26R
CROSSVILLE     CLEAR     35   9  33 N5        30.23R WCI  31
NASHVILLE      CLEAR     39  13  34 N7        30.29R WCI  34
$$

...KEY TO REMARKS...
VSB - VISIBILITY IN MILES
WCI - WIND CHILL INDEX
HX  - HEAT INDEX

$$


USA.gov is the U.S. government's official web portal to all federal, state and local government web resources and services.